Regional Weather Roundup
Issued by NWS

Home | Current Version | Previous Version | Text Only | Print | Product List | Glossary On
Versions: 1 2 3 4 5 6 7 8 9 10 11 12 13 14 15 16 17 18 19 20 21 22 23 24 25 26 27 28 29 30 31 32 33 34 35 36 37 38 39 40 41 42 43 44 45 46 47 48 49 50
878
ASUS43 KMKX 281011
RWRWI

WISCONSIN REGIONAL WEATHER ROUNDUP
NATIONAL WEATHER SERVICE MILWAUKEE/SULLIVAN WI
500 AM CDT WED JUN 28 2017

NOTE: "FAIR" INDICATES FEW OR NO CLOUDS BELOW 12,000 FEET WITH NO
SIGNIFICANT WEATHER AND/OR OBSTRUCTIONS TO VISIBILITY.

WIZ001-002-006>008-014>016-023>028-281100-
NORTHWEST WISCONSIN

CITY           SKY/WX    TMP DP  RH WIND       PRES   REMARKS
SUPERIOR ARPT  NOT AVBL
ASHLAND        CLOUDY    54  46  74 CALM      29.77F
HAYWARD        CLOUDY    59  47  64 SE5       29.76F
SIREN          CLOUDY    64  47  54 S13G21    29.71F
CUMBERLAND     CLOUDY    57  46  67 SE3       29.75F
RICE LAKE      CLOUDY    60  48  65 E9        29.76F
CHETEK         CLOUDY    59  49  69 SE5       29.76F
LADYSMITH      CLOUDY    59  47  65 SE8       29.81F
EAU CLAIRE     CLOUDY    63  48  58 SE10      29.75F
MENOMONIE      CLOUDY    61  49  64 E6        29.75F
NEW RICHMOND   CLOUDY    63  48  58 S8        29.73S
OSCEOLA        CLOUDY    64  50  60 S10G16    29.73F
$$

WIZ003>005-009-010-017-018-281100-
NORTH CENTRAL WISCONSIN

CITY           SKY/WX    TMP DP  RH WIND       PRES   REMARKS
MANITOWISH WTR CLEAR     56  47  70 S8        29.84F
ARBOR VITAE    CLEAR     57  47  69 S7        29.85F
WOODRUFF       CLEAR     57  47  69 S7        29.85F
RHINELANDER    CLEAR     57  46  66 S7        29.88R
EAGLE RIVER    CLEAR     52  45  77 CALM      29.88R
LAND O LAKES   CLEAR     53  47  80 S3        29.90R
PHILLIPS       CLOUDY    56  47  72 S10G16    29.82F
TOMAHAWK       NOT AVBL
MEDFORD        MOCLDY    55  47  75 SE10      29.84F
MERRILL        CLOUDY    48  47  95 CALM      29.88S
$$

WIZ029-030-035-036-043>047-281100-
CENTRAL WISCONSIN

CITY           SKY/WX    TMP DP  RH WIND       PRES   REMARKS
WAUSAU           N/A    N/A N/A N/A MISG      29.87S
MOSINEE        CLOUDY    54  48  82 S12       29.89S
MARSHFIELD     MOCLDY    56  48  74 S8        29.85F
STEVENS POINT  CLOUDY    56  46  68 S8        29.89F
WAUPACA        CLOUDY    51  50  95 CALM      29.92S
WAUTOMA        CLOUDY    48  46  93 CALM      29.91F
WISC RAPIDS    CLOUDY    58  48  69 SE6       29.88F
CAMP DOUGLAS   CLOUDY    55  51  87 E9        29.84F
$$

WIZ011>013-019>022-031-037>040-048>050-281100-
NORTHEAST WISCONSIN

CITY           SKY/WX    TMP DP  RH WIND       PRES   REMARKS
ANTIGO         CLEAR     50  46  87 S7        29.90F
SHAWANO        CLEAR     55  48  76 CALM      29.91F
OCONTO         CLEAR     56  50  80 S3        29.92R
STURGEON BAY     N/A     57  49  74 S10       29.94
GREEN BAY      CLEAR     56  51  84 S6        29.92R
MANITOWOC      CLEAR     58  47  66 S8        29.95R
APPLETON       CLEAR     57  45  62 S10       29.91S
CLINTONVILLE   CLEAR     52  46  82 S5        29.91S
OSHKOSH        PTCLDY    53  48  83 S8        29.93S
$$

WIZ032>034-041-042-053>061-281100-
SOUTHWEST WISCONSIN

CITY           SKY/WX    TMP DP  RH WIND       PRES   REMARKS
LA CROSSE      CLOUDY    71  51  49 S14       29.77F
SPARTA         CLOUDY    64  50  59 S10G17    29.82F
VIROQUA        CLOUDY    64  51  62 S14G22    29.83F
BOSCOBEL       CLOUDY    66  50  56 VRB6      29.83F
PRAIRIE DU CHI CLOUDY    68  49  49 SE7       29.81F
PLATTEVILLE    CLOUDY    63  52  68 SE10      29.86F
$$

WIZ056-057-062-063-064-067-068-281100-
SOUTH CENTRAL WISCONSIN

CITY           SKY/WX    TMP DP  RH WIND       PRES   REMARKS
REEDSBURG      CLOUDY    61  49  65 SE6       29.87F
BARABOO/DELLS  CLOUDY    60  47  63 S10       29.88F
LONE ROCK      CLOUDY    66  49  54 S13       29.86F
MINERAL POINT  CLOUDY    61  52  72 SE12      29.87F
MADISON        CLOUDY    62  49  62 S10       29.91S
MIDDLETON      CLOUDY    63  49  61 S10G17    29.91F
WATERTOWN      NOT AVBL
MONROE         CLOUDY    61  48  63 S12       29.90F
JANESVILLE     MOCLDY    61  46  59 SE8       29.94F
$$

WIZ051-052-058>065-066-070>072-281100-
SOUTHEAST WISCONSIN

CITY           SKY/WX    TMP DP  RH WIND       PRES   REMARKS
MILWAUKEE      PTCLDY    61  48  62 S8        29.98R
WAUKESHA       CLOUDY    54  45  71 S6        29.99R
MILWAUKEE/TIMM CLEAR     55  43  62 S6        29.99R
RACINE         CLEAR     59  47  64 S8        30.00R
KENOSHA        CLEAR     58  48  69 S8        29.99R
FOND DU LAC    CLEAR     57  46  66 S7        29.94R
SHEBOYGAN      CLEAR     51  50  96 CALM      29.95S
WEST BEND      CLEAR     54  46  76 S5        29.97R
JUNEAU         PTCLDY    57  47  67 SE8       29.95S
$$

LSZ147-162-281100-
LAKE SUPERIOR

STATION/POSITION TIME  TEMP    WIND        PRES    WAVE
                       AIR SEA DIR/SP/G            HT/PER
                 (UTC) (F)     (DEG/KT/KT) (MB)    (FT/S)
W MID LAKE BUOY  0950   45 39  150/  8/ 10 1009.0R   0
DEVILS ISLAND    1000   59     160/ 10/ 13 1007.8R
SAXON HARBOR     0930   62     180/  5/ 11 1008.5R
$$

LMZ867-665-643>646-281100-
LAKE MICHIGAN

STATION/POSITION TIME  TEMP    WIND        PRES    WAVE
                       AIR SEA DIR/SP/G            HT/PER
                 (UTC) (F)     (DEG/KT/KT) (MB)    (FT/S)
CHAMBERS ISLAND  0940   62     170/  4/  8 1012.2S
S GREEN BAY BUOY 1000   65     200/ 16/ 19 1012.9
N MID LAKE BUOY  0950   58 57  190/ 12/ 12 1013.5F   3/ 5
NORTHPORT PIER   0940   57     160/  3/  5 1012.5S
KEWAUNEE LAKESHO 0942   53     210/  6/ 10 1013.5R
SHEBOYGAN LAKESH 1000   56     180/  8/ 10 1014.1S
PORT WASHINGTON  0940   58     210/  4/ 10 1015.6R
ATWATER BUOY     0909   60 55  180/ 10/ 12 1014.6F
MILWAUKEE LAKESH 0950   61     200/  7/  8   N/A
S MID LAKE BUOY  0950   63 61  180/ 14/ 16 1015.7S   2/ 4
KENOSHA   LAKESH 1000   63     200/ 10/ 17 1015.6
$$

TC  - TEMPERATURE IN CELSIUS
VSB - VISIBILITY IN STATUTE MILES
WCI - WIND CHILL INDEX
HX  - HEAT INDEX





USA.gov is the U.S. government's official web portal to all federal, state and local government web resources and services.